Skip Page Navigation
NASA JPL Caltech
NASA Logo - Jet Propulsion Laboratory + View the NASA Portal
+ Near-Earth Object (NEO) Program
Search JPL
JPL Home Earth Solar System Stars & Galaxies Technology
JPL Solar System Dynamics
BODIES ORBITS EPHEMERIDES TOOLS PHYSICAL DATA DISCOVERY FAQ SITE MAP
JPL Small-Body Database Browser
Search: [ help ]  
6930 (1994 VJ3)
Classification: Outer Main-belt Asteroid          SPK-ID: 2006930
Ephemeris | Orbit Diagram | Orbital Elements | Physical Parameters | Discovery Circumstances | Close-Approach Data ]

[ show orbit diagram ]
Orbital Elements at Epoch 2456400.5 (2013-Apr-18.0) TDB
Reference: JPL 1 (heliocentric ecliptic J2000)
 Element Value Uncertainty (1-sigma)   Units 
e .1491419293270331 5.382e-08  
a 3.20595576529212 3.0538e-08 AU
q 2.727813337119329 1.7179e-07 AU
i .5824002413159467 7.0909e-06 deg
node 151.9415264301835 0.00056731 deg
peri 321.4063523503871 0.00056829 deg
M 25.43179253838455 2.4511e-05 deg
tp 2456252.381540359759
(2012-Nov-20.88154036)
0.00014256 JED
period 2096.692373925519
5.74
2.9958e-05
8.202e-08
d
yr
n .1716990076736876 2.4532e-09 deg/d
Q 3.684098193464912 3.5092e-08 AU
  Orbit Determination Parameters
   # obs. used (total)      1115  
   data-arc span      29299 days (80.22 yr)  
   first obs. used      1933-01-25  
   last obs. used      2013-04-14  
   planetary ephem.      DE405  
   SB-pert. ephem.      SB405-CPV-2  
   condition code      0  
   fit RMS      .54023  
   data source      ORB  
   producer      Otto Matic  
   solution date      2013-Apr-29 13:24:02  

Additional Information
 Earth MOID = 1.74383 AU 
 T_jup = 3.175 
[ show covariance matrix ]

Ephemeris | Orbit Diagram | Orbital Elements | Physical Parameters | Discovery Circumstances | Close-Approach Data ]

Physical Parameter Table
Parameter Symbol Value Units Sigma Reference Notes
absolute magnitude H 12.3 mag n/a PDS3 (MPC 28116)  

6930 (1994 VJ3)          Discovered 1994-Nov-07 by Ueda, S., Kaneda, H. at Kushiro (399)
Reference: DISCOVERY.DBLast Updated: 2003-08-29

[ show close-approach data ]
Alternate Designations
 1994 VJ3 = 1933 BH = 1993 PD1 
Ephemeris | Orbit Diagram | Orbital Elements | Physical Parameters | Discovery Circumstances | Close-Approach Data ]
ABOUT SSD CREDITS/AWARDS PRIVACY/COPYRIGHT GLOSSARY LINKS
FirstGov 2013-May-22 09:29 UT
(server date/time)  
NASA Home Page
Site Manager:   Donald K. Yeomans
Webmaster  Alan B. Chamberlin